Torna al catalogo

XINGWANG JISHU SW 10-01

AttivoScienzaVLEO
NORAD 69320·PAYLOAD·🇨🇳 China
Questo nome del satellite non è ancora stato confermato da fonti ufficiali.

Lanciato May 30, 2026 da Xichang Satellite Launch Center

Loading…

Prossimi Passaggi (prossime 24 ore)

TLE

AggiornatoSource: Space-Track

Epoca: Sep 14, 2026, 13:12 UTC

1 69320U 26120A   26257.55000021  .00012926  00000-0  61659-3 0  9996
2 69320  55.0120 351.1825 0011054 152.4709 207.6898 15.19406395 16368

Traccia XINGWANG JISHU SW 10-01 in tempo reale con AllMySat

Download on the App Store